GFSFLT2_prec_cloud_042.txt.gz
Cloud_Cover
100 100 100 100 100 100 100 100 100 100 100 100 100 100 100 100 100 100 100 100 100 100 100 100 100 100 100
100 100 100 100 100 100 100 100 100 100 100 100 100 100 100 100 100 100 100 100 100 100 100 100 100 99 100
100 100 100 100 100 100 100 100 100 100 100 100 100 100 100 100 100 100 100 100 100 100 100 100 100 100 100
100 100 100 100 100 100 100 100 100 100 100 100 100 100 100 100 100 100 100 100 100 100 100 100 100 100 100
100 100 100 100 100 100 100 100 100 100 100 100 100 100 100 100 100 100 100 100 100 100 100 100 100 100 100
99 74 99 95 100 100 100 100 100 100 100 100 100 87 88 100 100 57 5 97 100 100 14 30 100 100 89
89 100 86 48 89 52 30 17 53 99 100 100 100 100 100 99 69 81 46 39 90 5 6 15 32 18 27
7 5 29 54 69 98 99 87 63 63 86 37 5 5 5 5 0 5 5 5 5 5 7 12 5 5 14
6 11 7 61 67 77 72 63 16 5 5 5 5 5 5 5 5 3 5 5 5 5 5 5 22 23 27
5 4 5 5 5 5 5 5 48 15 5 30 10 12 46 2 5 2 4 0 5 5 5 5 13 55 5
0 0 0 0 2 4 4 5 18 21 15 96 90 97 97 57 5 5 5 5 5 4 5 5 5 20 24
5 5 5 5 5 7 5 7 5 5 5 33 90 100 100 100 97 11 5 6 5 5 5 5 5 6 30
5 5 20 5 26 16 5 5 5 5 5 5 94 100 100 100 100 90 100 22 7 5 5 5 5 5 8
8 5 9 58 78 91 100 71 72 11 5 5 30 98 100 100 100 95 67 98 26 75 84 17 13 9 58
92 100 100 100 92 65 95 93 98 88 30 5 5 9 82 96 100 96 97 85 83 13 16 63 53 64 5
100 100 100 93 94 70 92 96 100 84 70 10 44 68 91 53 74 99 98 100 60 6 15 95 84 38 5
81 65 59 62 98 68 98 95 96 100 67 57 98 99 100 97 22 76 13 6 5 5 19 78 98 7 5

GFSFLT2_prec_cloud_045.txt.gz
Cloud_Cover
100 90 99 100 100 100 100 100 100 100 100 100 100 100 100 100 100 100 100 100 100 100 100 100 100 100 100
100 100 100 100 100 100 100 100 100 100 100 100 100 100 100 100 100 100 100 100 100 100 100 100 100 100 100
100 100 100 100 100 100 100 100 100 100 100 100 100 100 100 100 100 100 100 100 100 100 100 100 100 100 100
100 100 100 100 100 100 100 100 100 100 100 100 100 100 100 100 100 100 100 100 100 100 100 100 100 100 100
100 100 100 100 76 90 83 85 86 99 100 100 100 100 100 100 100 100 100 100 100 100 100 100 100 100 100
91 85 62 28 17 73 81 72 87 45 27 10 98 91 99 100 100 100 100 100 100 100 100 100 100 100 100
11 12 10 5 5 5 6 5 5 12 20 45 74 50 55 52 90 18 6 20 65 100 100 84 100 100 100
5 5 5 5 5 5 5 5 5 5 5 67 5 5 5 5 5 5 5 5 5 18 26 43 25 10 6
5 5 5 7 14 12 80 70 18 5 5 5 5 5 5 5 5 12 54 45 29 5 5 5 5 22 23
5 5 3 0 0 4 5 5 54 5 5 35 10 5 10 2 5 4 5 5 5 5 5 5 5 51 5
5 5 5 5 5 5 5 5 13 5 13 48 91 64 89 58 5 5 5 3 3 2 5 5 5 22 18
5 5 5 5 5 5 5 12 6 5 5 20 78 73 87 88 75 5 5 5 5 5 5 5 5 14 27
6 26 5 5 18 32 5 5 5 5 5 43 30 19 100 99 90 60 82 45 13 5 5 5 5 6 9
7 5 9 68 96 79 73 76 91 12 5 7 34 60 90 98 100 92 52 87 100 93 10 7 5 13 15
48 97 100 100 100 25 17 82 99 92 34 5 5 5 8 46 100 100 95 99 100 100 73 88 16 5 6
76 100 100 100 55 48 74 97 96 93 87 14 68 72 58 5 50 92 99 100 95 90 57 100 81 6 5
77 74 74 84 96 86 81 96 93 45 32 8 90 100 99 99 28 92 55 50 10 17 32 88 94 7 5

GFSFLT2_prec_cloud_048.txt.gz
Cloud_Cover
100 100 100 97 100 100 100 100 100 100 100 100 100 100 100 100 100 100 100 100 100 100 100 100 100 100 100
100 100 100 100 100 100 100 100 100 100 100 100 100 100 100 100 100 100 100 100 100 100 100 100 100 100 100
100 100 100 100 100 100 100 100 100 100 100 100 100 100 100 100 100 100 100 100 100 100 100 100 100 100 100
100 100 100 100 100 100 100 100 100 94 100 96 100 100 98 92 100 100 100 100 100 100 100 100 100 100 100
99 96 99 100 100 97 47 28 9 8 33 11 46 39 7 96 66 99 100 98 100 100 100 100 100 100 100
38 41 26 18 16 5 9 5 5 5 5 5 5 5 5 47 99 79 6 50 80 75 68 99 100 100 100
5 5 5 5 5 5 12 25 5 5 5 5 5 5 3 5 5 5 5 11 6 23 68 90 99 100 100
18 12 5 5 5 5 5 5 5 5 5 82 5 5 4 5 5 5 5 5 5 5 11 29 100 74 60
34 6 8 18 7 6 35 60 17 5 5 5 5 5 5 5 5 11 95 70 85 75 24 13 7 13 5
5 5 5 5 5 5 21 6 63 5 4 41 10 5 5 0 5 2 4 5 7 5 5 5 5 8 5
5 5 5 5 5 5 5 5 13 14 5 7 92 86 79 23 5 5 5 5 5 4 1 5 5 15 20
5 5 4 5 7 11 5 22 5 5 5 6 80 86 97 100 78 5 5 5 5 5 5 5 7 5 50
5 5 20 5 46 18 5 5 5 5 5 48 69 79 85 98 88 76 73 5 10 5 7 5 5 7 5
16 5 11 71 100 93 70 8 90 52 5 28 59 89 95 98 95 100 79 80 35 32 62 18 6 5 10
51 20 57 100 100 90 61 80 91 96 59 16 5 11 33 22 98 88 67 64 5 9 84 98 94 23 5
74 87 92 81 87 33 84 100 99 79 36 19 72 62 58 5 28 68 69 85 24 41 70 100 87 100 82
100 100 100 79 76 82 67 69 62 32 5 43 90 100 96 95 5 5 68 9 5 96 28 78 6 22 5

GFSFLT2_prec_cloud_051.txt.gz
Cloud_Cover
100 100 100 100 95 57 99 100 100 100 100 100 100 100 100 100 100 100 100 100 100 100 100 100 100 100 100
79 96 100 100 99 87 87 100 95 99 95 35 99 100 100 100 100 100 100 100 100 100 100 100 100 100 100
78 88 86 100 99 100 100 96 80 74 88 44 80 100 100 100 100 100 100 100 100 83 100 100 100 100 100
90 100 99 100 100 100 71 89 58 7 30 41 35 18 28 26 32 37 40 69 87 88 100 100 100 100 100
100 63 58 37 29 17 12 5 5 5 3 2 2 2 2 1 1 1 1 3 49 29 100 100 100 100 100
6 5 5 5 5 5 5 5 2 3 1 0 0 0 0 2 5 1 0 0 1 5 5 8 81 95 100
5 5 6 10 7 12 5 5 5 5 5 0 0 5 5 5 4 5 5 5 5 5 5 8 43 100 100
78 52 18 8 5 5 5 5 5 5 5 5 1 0 0 0 4 5 5 5 5 5 5 42 42 53 100
22 8 5 9 5 5 6 5 4 0 4 5 5 5 5 5 5 18 5 5 10 17 48 82 100 100 74
5 5 5 5 5 5 5 5 5 5 5 5 5 5 5 5 5 5 5 0 5 38 80 87 95 70 12
5 5 5 5 5 5 5 5 5 5 6 15 72 72 79 23 5 5 5 4 5 3 1 5 5 5 5
16 27 5 5 5 5 5 6 5 21 26 92 82 64 91 94 80 5 5 5 5 5 5 5 5 5 28
5 5 47 10 5 11 49 56 29 62 64 52 8 77 89 99 80 82 97 11 42 62 30 8 5 5 5
76 89 38 10 89 96 91 57 97 49 6 5 6 74 83 87 98 100 84 74 5 17 81 88 82 70 57
28 31 75 97 91 65 78 100 69 6 5 5 5 6 64 77 96 88 75 54 6 41 78 85 77 70 10
81 98 95 71 83 80 56 72 25 5 15 5 6 82 70 73 25 12 21 22 18 79 83 99 62 5 5
98 82 62 56 49 7 17 5 5 5 5 7 98 100 100 98 5 31 65 76 65 62 76 82 76 6 5

GFSFLT2_prec_cloud_054.txt.gz
Cloud_Cover
52 98 99 100 97 99 94 88 78 100 100 100 100 100 100 100 100 100 100 100 100 100 100 100 100 100 100
94 98 82 76 81 92 100 58 66 92 100 100 100 100 100 99 100 100 100 100 99 100 100 99 100 100 100
100 90 99 100 100 100 100 96 37 8 5 6 5 5 5 26 95 100 95 100 100 80 92 100 100 100 100
100 95 94 99 99 59 44 17 16 5 5 5 5 5 5 56 97 100 100 100 100 84 71 59 99 100 100
100 92 94 63 60 60 48 13 5 4 0 1 0 1 2 1 1 1 2 9 14 5 5 5 5 5 94
78 10 38 73 31 31 5 5 5 3 0 0 0 0 0 0 0 1 5 5 0 0 0 1 5 5 5
4 5 58 11 5 5 5 5 5 1 0 2 3 0 0 1 0 3 5 5 5 5 5 5 5 29 99
5 5 5 6 5 7 5 5 5 5 4 2 5 2 4 5 5 5 5 6 5 5 8 8 36 93 100
2 1 5 5 5 5 33 5 5 5 5 5 5 5 5 5 5 5 5 5 5 12 7 40 94 100 100
5 5 5 5 5 5 5 5 5 12 6 6 5 5 6 5 48 61 83 8 5 5 5 10 86 100 100
5 5 5 5 5 5 5 9 60 27 20 32 98 77 77 95 93 20 5 5 5 5 5 5 37 92 84
19 7 5 5 16 50 28 11 19 16 22 60 88 96 100 100 62 5 13 55 5 14 20 18 5 5 5
5 5 5 15 15 60 90 75 34 23 45 73 82 91 100 100 86 99 83 30 21 50 53 62 77 59 46
5 5 5 63 77 89 93 90 86 12 11 20 67 80 74 89 90 100 87 96 50 80 99 88 71 80 67
5 5 5 5 40 59 75 74 50 5 13 65 21 67 68 75 91 75 66 91 60 67 99 97 68 56 73
6 22 14 5 5 8 12 11 5 5 5 5 45 90 94 38 36 49 62 67 82 76 99 100 78 20 71
5 5 5 5 5 5 5 5 5 5 5 64 92 100 100 95 28 24 45 66 77 76 85 77 67 5 48

GFSFLT2_prec_cloud_057.txt.gz
Cloud_Cover
77 24 22 29 58 48 99 98 97 100 100 100 100 100 100 100 100 100 100 100 100 100 100 100 100 100 100
79 95 91 81 68 99 100 94 100 91 100 100 100 100 100 100 100 68 88 100 90 100 100 100 100 100 100
100 100 54 100 100 99 87 6 5 5 5 5 7 13 8 5 82 92 5 5 23 60 26 10 87 100 100
100 100 47 100 60 20 11 11 5 5 5 5 5 5 5 5 5 5 48 63 68 100 100 100 92 76 100
100 100 100 92 30 5 2 5 5 5 5 2 0 0 0 0 1 4 5 5 6 12 32 5 8 19 26
100 79 19 5 0 0 2 4 5 0 0 0 0 0 0 0 0 4 5 5 5 5 5 5 5 5 5
1 0 0 0 5 5 5 5 5 0 0 0 4 3 0 1 5 5 5 5 5 5 5 5 5 5 6
4 5 5 5 5 5 5 5 5 5 5 5 5 5 5 5 5 5 5 5 5 5 5 6 6 16 5
0 2 2 5 5 5 5 5 5 5 5 5 5 5 8 48 40 5 5 5 5 5 5 15 7 20 100
0 5 5 5 0 1 5 5 5 15 6 8 6 12 22 5 36 7 5 5 5 64 90 17 5 13 5
5 4 5 5 5 5 5 5 6 5 6 6 99 50 68 30 5 3 0 1 4 18 44 67 5 55 100
12 5 5 5 5 5 5 5 5 5 5 26 65 91 98 100 38 3 5 5 4 5 5 19 18 57 25
8 5 5 5 5 5 34 79 16 5 5 5 58 86 98 100 80 69 59 5 5 5 5 5 10 70 17
5 5 5 5 5 33 17 56 88 7 5 5 5 91 100 86 70 87 56 67 5 5 5 18 67 13 5
5 5 5 5 20 5 5 5 51 5 5 5 5 5 5 26 91 78 18 12 5 10 71 100 100 70 5
5 5 5 5 5 5 5 5 5 5 5 5 5 31 83 70 60 76 76 61 5 52 100 100 100 40 5
5 5 6 6 5 5 5 5 5 5 5 5 14 100 100 100 18 38 17 20 8 18 5 14 85 29 20

GFSFLT2_prec_cloud_060.txt.gz
Cloud_Cover
52 93 97 100 63 90 46 26 81 24 87 100 100 100 100 99 100 100 100 100 100 100 100 100 100 100 100
100 84 95 92 43 100 16 0 0 2 5 34 100 100 100 100 100 95 94 100 100 100 100 100 100 100 100
100 100 100 100 67 7 0 0 4 5 5 5 5 5 5 8 74 91 27 7 9 6 5 5 8 81 73
100 100 100 100 41 5 5 5 2 0 0 0 1 3 5 5 5 5 6 49 80 100 100 100 100 83 95
100 100 100 90 5 5 2 3 0 0 0 0 1 2 4 4 2 5 5 5 6 18 46 82 49 12 9
100 77 100 100 44 5 1 5 5 0 1 5 5 5 5 5 5 5 5 5 5 5 5 5 5 5 5
100 100 69 75 5 5 5 5 5 3 0 1 2 5 4 0 0 2 5 5 5 5 5 5 5 5 5
100 100 100 67 5 5 5 5 5 3 5 5 5 2 1 5 5 5 5 5 5 5 9 14 8 15 28
100 100 100 58 8 6 5 5 5 0 3 5 5 5 5 5 5 35 52 5 5 5 5 5 25 19 70
100 100 100 47 5 6 5 5 18 6 5 5 6 5 11 5 5 5 5 5 4 2 5 5 5 5 5
100 100 100 98 82 5 5 5 69 52 24 14 40 21 46 20 5 5 5 0 0 2 0 3 5 16 6
100 100 91 46 23 5 5 5 12 5 5 5 54 19 6 100 49 5 5 5 5 5 5 5 6 5 30
100 99 64 7 7 5 42 5 5 5 5 7 25 60 59 97 72 77 71 5 5 6 5 6 5 13 12
92 70 94 24 13 22 7 5 23 5 5 6 5 5 52 92 100 96 71 52 5 5 5 5 5 6 5
27 51 33 17 5 5 6 20 36 59 15 5 5 6 5 18 86 61 41 19 5 5 31 13 88 91 62
7 12 24 23 19 42 24 21 61 21 13 5 9 43 50 12 19 52 77 87 7 5 5 86 80 10 5
43 22 23 68 73 77 15 38 40 52 21 5 14 62 99 100 57 7 14 96 91 86 83 82 12 5 5

GFSFLT2_prec_cloud_063.txt.gz
Cloud_Cover
100 100 88 59 38 56 30 100 100 100 92 81 34 16 44 89 96 100 100 100 100 100 100 100 100 100 100
100 100 84 68 8 100 100 100 100 100 12 4 0 0 4 36 52 91 100 99 100 100 100 100 100 100 100
100 100 100 100 27 94 100 100 100 100 41 4 0 2 4 5 11 40 23 61 50 99 100 100 100 100 100
100 100 100 99 100 100 100 100 98 100 17 4 0 0 0 0 1 2 5 5 5 5 25 63 99 75 24
100 100 100 100 100 100 100 100 100 19 93 5 5 0 0 0 0 0 0 0 1 4 6 22 72 82 31
100 100 100 100 100 100 100 100 100 34 6 5 5 0 1 0 0 0 0 0 5 5 1 2 5 5 5
100 100 100 100 100 100 100 100 100 81 12 5 1 1 4 4 0 0 0 4 5 5 6 5 5 5 5
100 100 100 100 100 100 100 100 100 71 9 6 5 5 3 2 2 0 2 5 5 5 5 5 16 10 11
100 100 100 100 100 100 100 100 86 26 15 5 5 5 5 5 5 0 3 5 5 5 5 5 5 23 45
100 100 100 100 100 100 100 96 69 41 17 5 6 5 7 5 5 5 5 4 5 5 5 5 5 5 5
100 100 100 100 100 100 36 62 80 72 35 19 73 32 68 39 5 5 5 5 5 4 5 5 5 25 15
100 100 100 100 100 90 58 9 55 52 10 7 50 38 68 73 24 5 5 5 9 14 5 4 5 5 5
100 100 100 100 42 38 54 56 24 9 5 64 24 93 67 92 80 17 60 5 5 29 14 14 5 10 14
100 86 93 75 97 57 6 26 66 5 5 31 94 69 99 56 21 79 70 60 6 5 5 5 5 5 5
94 93 59 83 27 32 44 69 58 58 29 24 52 84 33 16 93 82 87 63 5 5 41 7 5 5 5
82 84 86 94 46 50 58 57 64 52 57 43 34 13 41 26 30 60 39 32 5 10 14 88 27 5 5
100 100 99 77 86 66 78 59 58 56 57 62 67 72 100 98 5 20 32 28 68 60 43 83 26 5 5

GFSFLT2_prec_cloud_066.txt.gz
Cloud_Cover
100 100 100 100 71 100 100 68 14 98 100 100 100 100 40 40 99 44 91 100 100 100 100 100 100 100 100
100 100 100 100 100 100 100 29 100 59 60 65 100 100 25 47 59 48 31 82 98 100 100 54 100 100 72
100 100 100 100 100 96 100 100 100 100 100 100 100 100 41 13 13 5 51 94 94 100 98 100 100 89 100
99 100 99 100 100 100 97 100 100 100 100 100 100 100 76 72 57 5 5 5 5 5 5 40 58 65 74
100 100 100 100 100 100 100 100 100 100 100 100 100 100 6 10 33 5 5 1 0 1 4 5 4 5 9
100 100 100 100 100 100 100 100 100 100 100 100 100 93 19 5 5 7 5 1 5 5 3 0 0 5 5
100 100 100 100 100 100 100 100 100 100 100 100 100 49 40 12 7 5 5 5 5 5 5 6 6 8 5
100 100 100 100 100 100 100 100 100 100 100 97 100 46 43 50 24 5 5 5 5 5 5 5 5 5 14
100 100 100 100 100 100 100 100 100 100 100 100 100 18 36 35 5 5 5 5 5 5 5 5 5 5 5
100 100 100 100 100 100 100 100 100 100 100 100 65 52 67 13 5 5 5 5 5 5 5 5 5 5 5
100 100 100 100 100 100 100 100 100 100 99 50 78 61 68 56 15 5 5 5 5 6 5 5 5 5 5
100 100 100 100 100 100 100 100 100 100 100 65 70 44 77 75 32 5 5 5 8 8 12 5 5 5 5
100 100 100 100 100 100 100 100 100 93 83 81 48 94 70 72 57 67 10 6 8 54 16 10 8 11 18
100 100 100 100 100 100 100 96 76 85 96 96 58 34 99 79 69 39 62 77 43 16 11 5 5 5 6
100 100 100 100 100 100 100 100 81 98 94 84 45 65 48 87 100 96 71 69 18 5 62 36 5 5 5
100 100 99 100 99 98 88 86 90 68 67 78 100 94 94 100 100 100 84 45 23 34 53 91 65 5 5
100 94 100 100 100 100 100 99 95 62 91 100 77 96 100 94 82 53 90 79 68 76 28 71 58 5 5

GFSFLT2_prec_cloud_069.txt.gz
Cloud_Cover
100 100 100 100 100 100 100 100 99 98 100 100 100 93 100 100 100 100 100 100 100 100 100 100 100 100 100
100 100 100 100 100 100 100 100 100 100 16 100 100 100 100 100 100 100 100 96 100 100 100 100 100 100 100
100 100 100 100 100 100 100 95 100 100 100 100 100 100 100 100 100 100 100 50 54 22 90 100 100 72 23
100 100 100 100 100 100 99 100 100 100 100 100 100 100 100 100 100 100 94 44 6 24 92 72 100 100 100
100 100 100 100 100 100 100 100 100 100 100 100 100 100 100 100 100 100 100 14 5 5 5 5 7 5 5
100 100 100 100 100 100 100 100 100 100 100 100 100 100 100 100 100 100 80 7 5 5 5 5 5 5 5
100 100 100 100 100 100 100 100 99 100 100 100 100 100 100 100 100 100 98 9 6 5 5 5 5 5 5
100 100 100 100 100 100 100 100 100 100 100 100 100 100 100 100 100 100 81 33 5 5 5 5 5 8 10
100 100 100 100 100 100 94 100 100 100 100 100 100 100 100 100 100 100 61 34 5 5 5 5 5 5 5
100 100 100 100 100 91 100 100 100 100 100 100 100 100 100 100 100 96 72 17 5 5 5 5 5 6 5
100 100 100 100 100 100 100 100 100 100 100 100 100 100 100 100 100 96 73 30 19 5 5 5 5 5 5
100 100 100 100 100 100 100 100 100 100 100 100 100 100 100 100 100 99 46 30 6 5 5 5 5 6 5
100 100 100 100 100 100 100 100 100 100 100 100 100 100 100 100 91 58 17 7 14 52 16 5 23 38 27
100 100 100 100 100 100 100 100 100 100 100 100 100 100 100 100 71 75 69 53 43 67 54 82 57 6 28
100 100 100 100 100 100 100 100 100 100 100 100 100 81 56 38 94 80 30 65 33 24 57 71 9 5 5
100 100 100 100 100 100 100 100 97 99 100 85 62 59 63 97 67 59 80 80 62 54 54 96 78 14 8
100 100 100 100 100 99 100 100 78 60 63 83 77 68 94 100 100 100 92 86 76 76 36 72 100 100 99

GFSFLT2_prec_cloud_072.txt.gz
Cloud_Cover
100 100 100 100 100 100 100 100 100 100 100 100 100 100 100 100 100 100 100 100 100 100 100 100 100 100 100
100 100 100 100 100 100 100 100 100 100 100 100 100 100 100 100 100 100 100 100 100 100 100 100 100 100 100
100 100 100 100 100 100 100 100 100 90 93 100 100 100 94 100 100 100 100 100 100 100 100 100 81 95 100
100 100 100 100 100 100 100 100 99 100 100 100 100 100 100 100 100 100 100 100 100 100 100 97 22 98 96
100 100 100 100 100 100 100 100 100 100 100 100 100 100 100 100 100 100 100 100 100 100 100 100 15 8 24
100 100 100 100 100 100 100 100 100 100 100 100 100 100 100 100 100 100 100 100 100 100 100 100 89 49 5
100 100 100 100 100 94 100 100 100 100 100 100 100 100 100 100 100 100 100 100 100 100 100 100 86 37 5
86 100 99 100 100 100 100 100 100 100 100 100 100 100 100 100 100 100 100 100 100 100 100 100 40 23 14
51 96 100 100 100 100 100 100 100 100 100 100 100 100 100 100 100 100 100 100 100 100 100 100 70 22 5
100 100 100 100 100 100 100 100 100 100 100 100 100 100 100 100 100 100 100 100 100 100 97 100 70 18 5
100 100 100 100 100 100 100 100 100 100 100 100 100 100 100 100 100 100 100 100 100 100 100 97 27 14 5
94 100 100 100 100 100 100 100 100 100 100 100 100 100 100 100 100 100 100 100 100 100 67 34 5 5 5
100 100 100 100 100 100 100 100 100 100 100 100 100 100 100 100 100 100 100 100 28 74 100 21 5 5 10
100 100 100 100 100 100 100 100 100 100 100 100 100 100 100 100 100 73 72 95 80 60 6 5 6 5 5
100 100 100 100 100 100 100 100 100 100 100 100 100 100 100 100 92 79 41 71 71 74 46 36 5 5 46
98 100 100 100 100 100 100 100 100 100 100 100 100 80 91 88 46 59 86 77 66 50 49 100 92 16 5
100 100 100 100 100 100 100 100 100 100 100 97 94 59 74 97 67 82 78 89 78 88 63 77 100 100 56

GFSFLT2_prec_cloud_075.txt.gz
Cloud_Cover
100 100 100 100 100 100 100 100 100 100 100 100 100 100 100 100 100 100 100 54 100 100 100 100 100 100 100
100 100 100 100 100 100 100 100 100 100 100 100 100 100 100 100 100 100 100 100 100 100 100 100 100 100 100
100 100 100 100 100 100 100 100 100 100 100 100 100 100 100 100 100 100 100 100 100 100 100 100 100 100 100
100 100 100 100 100 100 100 100 100 100 100 100 100 100 100 100 100 100 100 100 100 100 100 100 100 100 100
100 100 100 100 100 100 100 100 100 100 100 100 100 100 100 100 100 100 100 100 100 100 100 100 100 100 100
100 100 100 100 100 100 100 90 99 96 100 100 100 100 100 100 100 100 100 100 100 100 100 100 100 100 100
100 100 100 100 100 100 91 100 100 100 100 100 100 100 100 100 100 100 100 100 100 100 100 100 100 100 100
100 100 100 100 99 74 51 95 100 100 100 100 100 100 100 100 100 100 100 100 100 100 100 100 100 100 100
5 5 38 100 96 100 100 100 100 100 100 100 100 100 100 100 100 100 100 100 100 100 100 100 100 100 100
5 33 100 100 99 89 100 100 100 100 100 100 100 100 100 100 100 100 100 100 100 100 100 100 100 100 100
5 33 81 98 100 100 100 100 100 100 100 100 100 100 100 100 100 100 100 100 100 100 100 100 99 67 90
21 60 22 94 97 100 100 100 100 100 100 100 100 100 100 100 100 100 100 100 100 100 100 100 94 78 48
81 99 86 96 100 100 100 100 100 100 100 100 100 100 100 100 100 100 100 100 100 97 77 51 14 6 10
76 100 100 100 100 100 100 100 100 100 100 100 100 100 100 100 98 84 57 68 72 79 58 54 14 5 5
70 94 99 91 100 100 100 100 100 100 100 100 99 93 85 81 62 91 100 90 87 57 26 18 8 23 46
96 71 98 99 100 89 84 88 100 100 100 100 87 80 96 100 97 21 60 98 84 83 91 73 98 88 100
97 99 86 99 84 78 86 76 85 90 96 100 98 93 100 66 90 76 31 34 48 39 6 6 94 99 27

GFSFLT2_prec_cloud_078.txt.gz
Cloud_Cover
100 100 100 100 100 100 100 100 100 100 100 100 100 100 100 100 100 100 100 100 100 100 100 99 96 97 100
100 100 100 100 100 100 100 100 100 100 91 100 100 100 100 100 100 100 100 100 100 100 100 100 100 100 100
100 100 100 100 100 100 100 100 100 100 100 100 100 100 100 100 100 100 100 100 100 100 100 100 100 100 100
100 100 100 100 100 100 100 100 100 100 100 86 100 100 100 100 100 100 100 100 100 100 100 100 100 100 100
100 100 100 100 100 100 100 100 100 100 94 99 100 100 100 100 100 100 100 100 100 100 100 100 100 100 100
100 100 100 100 100 100 100 100 100 86 52 59 100 98 100 100 100 100 100 100 100 100 100 100 100 100 100
100 100 100 100 100 100 100 100 99 6 39 94 100 100 100 100 100 100 100 100 100 100 100 100 100 100 100
100 100 100 100 100 100 100 99 100 73 72 100 100 100 100 100 100 100 100 100 100 100 100 100 100 100 100
10 11 89 100 100 91 42 79 98 100 100 100 100 100 100 100 100 100 100 100 100 100 100 100 100 100 100
5 1 5 5 15 9 58 96 99 100 100 100 100 100 100 100 100 100 100 100 100 100 100 100 100 100 100
0 1 5 5 5 5 5 42 69 99 98 100 100 99 100 100 100 100 100 100 100 100 100 100 100 100 100
5 5 5 5 5 5 5 11 21 66 100 100 100 100 100 100 100 100 100 100 100 100 100 100 100 100 100
5 5 5 5 5 6 29 96 100 100 100 100 100 100 100 100 100 100 100 100 100 100 100 94 63 73 84
5 6 5 7 58 96 100 100 100 100 100 100 100 100 100 100 100 100 100 99 100 95 56 71 55 24 43
24 75 90 6 6 7 67 20 56 65 40 95 90 78 96 100 87 85 73 90 85 97 56 48 38 33 10
74 100 100 100 95 76 59 83 84 99 96 86 69 99 100 82 50 58 81 100 100 100 91 45 5 5 5
87 97 100 100 100 97 75 53 66 86 79 76 70 91 100 100 97 85 100 100 99 99 91 98 81 20 10

GFSFLT2_prec_cloud_081.txt.gz
Cloud_Cover
100 100 100 100 100 100 100 100 100 100 100 100 100 81 100 100 100 100 100 100 100 100 100 100 100 100 100
100 100 100 100 100 100 100 100 100 100 100 100 100 96 97 73 100 100 100 100 100 100 100 100 100 100 100
100 100 100 100 100 100 100 100 100 100 100 100 100 90 7 100 92 94 100 100 100 100 100 100 100 100 100
100 100 100 100 100 100 100 100 100 100 100 100 100 68 5 100 100 91 100 100 100 100 100 100 100 100 100
100 100 100 100 100 100 100 100 100 100 100 100 100 21 4 25 2 100 100 100 100 100 100 100 100 100 100
100 100 100 100 100 100 100 100 100 100 100 100 30 5 5 29 81 93 100 100 100 100 100 100 100 100 100
100 100 98 100 100 100 100 100 100 100 100 11 78 100 6 64 100 100 100 100 100 100 100 100 100 100 100
100 100 44 100 100 100 100 100 100 100 11 44 100 51 100 98 100 100 100 100 100 100 100 100 100 100 100
100 100 100 100 100 100 100 100 91 8 5 54 92 98 100 100 100 100 100 100 100 100 100 100 100 100 100
66 31 3 14 83 100 100 51 46 6 5 36 70 100 100 97 87 79 100 100 100 100 100 100 100 100 100
10 25 4 5 10 70 9 17 5 5 5 11 26 100 86 99 100 100 100 100 100 100 100 100 100 100 100
0 0 2 5 5 0 0 4 4 58 5 89 69 100 100 100 100 100 100 100 100 100 100 100 100 100 100
0 2 5 5 5 5 5 5 5 11 7 5 54 100 100 61 100 100 100 100 100 100 100 100 100 100 100
5 5 5 5 5 5 5 5 5 26 40 58 66 88 96 100 100 100 92 100 100 100 100 100 100 100 99
27 29 94 5 5 5 12 19 5 5 18 39 53 80 98 100 100 100 100 100 98 68 66 51 50 78 65
100 98 100 14 5 5 56 22 6 5 5 5 27 28 38 39 11 54 70 86 96 73 71 43 10 34 42
100 100 90 97 80 36 99 86 34 5 5 40 15 50 30 8 61 31 36 57 95 83 65 63 96 56 16

GFSFLT2_prec_cloud_084.txt.gz
Cloud_Cover
100 100 100 100 100 100 100 100 100 100 100 100 96 100 100 72 100 100 100 54 97 100 100 100 100 100 100
100 100 100 100 100 100 100 100 100 100 100 100 100 100 100 58 91 72 73 67 100 95 100 100 100 100 100
100 100 100 100 100 100 100 100 100 100 100 100 100 100 100 81 3 0 1 5 90 100 100 100 100 100 100
100 100 100 100 100 100 100 100 100 100 100 100 100 100 100 41 3 1 4 5 9 100 100 100 100 100 100
100 100 100 100 100 100 100 100 100 100 100 100 100 100 100 5 5 5 0 1 17 86 100 100 100 100 100
100 100 100 100 100 100 100 100 100 100 100 100 100 100 26 5 5 4 5 5 85 19 93 100 100 100 100
100 100 100 100 97 100 100 100 100 100 100 100 79 5 5 5 52 84 8 36 98 100 100 100 100 100 100
100 100 100 100 100 100 100 100 100 100 100 100 10 6 5 5 7 94 100 100 100 100 100 100 100 100 100
87 82 99 100 100 100 100 100 100 100 99 57 5 5 5 5 22 93 98 98 82 100 100 100 100 100 100
100 100 100 100 100 100 100 100 100 88 5 4 5 5 5 5 25 97 76 98 100 99 100 100 100 100 100
100 100 100 100 100 86 100 100 100 55 4 5 6 7 19 5 90 50 81 100 100 100 100 100 100 100 100
100 100 100 74 95 88 77 60 79 6 1 9 58 7 46 7 5 96 99 74 100 100 100 100 100 100 100
99 100 100 89 39 16 13 18 12 11 9 16 20 59 31 7 8 61 84 100 100 100 100 100 100 100 100
100 100 100 68 26 22 48 26 53 100 25 18 5 5 75 98 70 81 79 44 98 96 100 100 99 100 100
100 100 100 13 6 52 58 63 63 79 100 67 38 8 37 100 100 100 100 84 100 93 66 50 41 27 41
100 100 100 73 80 100 100 100 75 18 50 82 80 58 24 39 43 74 24 66 82 99 100 66 19 35 50
100 100 100 100 100 100 100 100 76 63 53 45 81 66 82 5 76 47 38 35 93 77 32 13 26 19 26

GFSFLT2_prec_cloud_090.txt.gz
Cloud_Cover
100 100 100 100 100 100 100 100 100 100 100 100 100 100 100 100 100 100 100 100 100 100 100 100 99 98 100
100 100 100 100 100 100 100 100 100 100 100 100 96 100 100 100 100 100 100 100 100 100 100 96 31 88 100
100 100 100 100 100 100 100 100 100 100 100 100 100 100 100 100 100 100 100 100 100 100 72 5 25 88 100
100 100 100 100 100 100 100 100 100 100 100 100 100 100 100 100 100 100 100 100 100 81 88 4 4 95 93
100 100 100 100 100 100 100 100 100 100 100 100 100 100 100 100 100 100 100 36 39 4 13 2 2 99 100
100 100 100 100 100 100 100 100 100 100 100 100 100 100 100 100 100 100 99 10 79 6 4 1 5 100 100
100 100 100 100 100 100 100 100 100 100 100 100 100 100 100 100 100 100 39 91 97 28 0 4 5 73 100
100 100 100 100 100 100 100 100 100 100 100 100 100 100 100 100 100 100 100 80 97 5 5 6 6 22 100
100 100 100 100 100 100 100 100 100 100 100 100 100 100 100 100 100 100 100 30 5 98 62 29 81 75 100
100 100 100 100 100 100 100 100 100 100 100 100 100 100 100 100 97 28 100 66 24 100 64 25 95 99 93
100 100 100 100 100 100 100 100 100 100 100 100 100 100 100 100 95 41 5 5 94 100 10 5 76 74 100
100 100 100 100 100 100 100 100 100 100 100 100 100 100 100 100 100 10 5 5 15 24 7 5 29 10 85
100 100 100 69 62 94 100 100 100 100 100 100 100 100 100 100 100 36 11 6 24 5 7 5 5 9 51
100 100 100 100 100 100 100 100 100 100 100 100 100 100 100 100 100 59 68 36 54 39 7 17 5 5 10
100 100 100 100 100 100 100 81 100 100 100 100 100 100 100 100 75 36 80 86 85 98 41 21 21 76 92
100 100 100 100 100 100 100 100 97 100 100 100 100 100 100 100 34 82 73 70 100 96 97 94 59 61 71
100 100 100 100 100 100 100 100 100 100 100 100 100 100 100 100 99 84 52 83 100 100 100 100 100 92 100